Weather in Podlesnoye

Russia / Tambov Oblast     53°09′31″N   41°14′21″E
temp.,
°C
wind,
m/s
gust,
m/s
humid.,
%
clouds,
%
prec.,
mm/h
press.,
hPa
HPBL,
m
25 february, thu
thu2500:00−17s5995100 0.4 1034347
03:00−15ssw51094100 0.6 1032384
06:00−13ssw61095100 0.6 1028405
09:00−11ssw71195100 1.8 1025417
12:00−7sw71295100 2.3 1020499
15:00−1sw81395100 4.4 1016434
18:00+2wnw61499100 1.0 1015367
21:00+2wnw51199100 1.0 1015341
26 february, fri
fri2600:00+1wnw51099100 0.0 1015336
03:00+1w3699100 0.0 1016200
06:00+1w49100100 0.2 1014257
09:00+1w512100100 0.4 1013314
12:00+2w612100100 0.1 1011354
15:00+2wsw714100100 0.2 1010406
18:00+2wsw715100100 0.2 1007418
21:00+2w71398100 0.3 1007451
27 february, sat
sat2700:00+2w7159181 0.0 1006516
03:00+1w7148990 0.0 1005508
06:000w71297100 0.1 1004668
09:000w71297100 0.1 1004620
12:00+1w61199100 0.0 1003645
15:00+1w71299100 0.1 1003669
18:000wnw71394100 0.2 1003764
21:00−4nnw61191100 1.0 1006597
28 february, sun
sun2800:00−8nnw499370 0.0 1008340
03:00−10nnw499545 0.0 1011276
06:00−11nnw399542 0.0 1012274
09:00−10nnw489250 0.0 1014417
12:00−9nnw479185 0.0 1016463
15:00−7nnw589092 0.0 1016538
18:00−7nnw3994100 0.1 1018503
21:00−8nnw3895100 0.1 1020350
1 march, mon
mon100:00−10nnw359485 0.1 1022111
03:00−11nnw369685 0.1 1023147
06:00−12nnw399566 0.0 1025207
09:00−11n499434 0.0 1027316
12:00−8nnw349491 0.0 1028291
15:00−6nw469395 0.0 1028406
18:00−8wnw349492 0.0 102784
21:00−7wsw489496 0.0 1027175